Year,Month,Day,Hour,Minute,Value (Times are PST for temperature in C)
2015,09,23,00,00,10.20
2015,09,23,00,01,10.20
2015,09,23,00,02,10.20
2015,09,23,00,03,10.20
2015,09,23,00,04,10.20
2015,09,23,00,05,10.10
2015,09,23,00,06,10.10
2015,09,23,00,07,10.10
2015,09,23,00,08,10.10
2015,09,23,00,09,10.10
2015,09,23,00,10,10.10
2015,09,23,00,11,10.10
2015,09,23,00,12,10.10
2015,09,23,00,13,10.10
2015,09,23,00,14,10.00
2015,09,23,00,15,9.90
2015,09,23,00,16,9.90
2015,09,23,00,17,9.90
2015,09,23,00,18,9.90
2015,09,23,00,19,9.90
2015,09,23,00,20,9.90
2015,09,23,00,21,9.80
2015,09,23,00,22,9.80
2015,09,23,00,23,9.90
2015,09,23,00,24,9.90
2015,09,23,00,25,9.90
2015,09,23,00,26,10.00
2015,09,23,00,27,10.10
2015,09,23,00,28,10.10
2015,09,23,00,29,10.10
2015,09,23,00,30,10.10
2015,09,23,00,31,10.10
2015,09,23,00,32,10.10
2015,09,23,00,33,10.10
2015,09,23,00,34,10.10
2015,09,23,00,35,10.10
2015,09,23,00,36,10.10
2015,09,23,00,37,10.00
2015,09,23,00,38,9.90
2015,09,23,00,39,9.90
2015,09,23,00,40,9.90
2015,09,23,00,41,9.90
2015,09,23,00,42,9.90
2015,09,23,00,43,9.90
2015,09,23,00,44,10.00
2015,09,23,00,45,10.10
2015,09,23,00,46,10.10
2015,09,23,00,47,10.10
2015,09,23,00,48,10.10
2015,09,23,00,49,10.10
2015,09,23,00,50,10.10
2015,09,23,00,51,10.10
2015,09,23,00,52,10.10
2015,09,23,00,53,10.10
2015,09,23,00,54,10.10
2015,09,23,00,55,10.00
2015,09,23,00,56,9.90
2015,09,23,00,57,9.90
2015,09,23,00,58,9.90
2015,09,23,00,59,9.90
2015,09,23,01,00,9.90
2015,09,23,01,01,9.90
2015,09,23,01,02,9.90
2015,09,23,01,03,9.90
2015,09,23,01,04,9.90
2015,09,23,01,05,9.80
2015,09,23,01,06,9.80
2015,09,23,01,07,9.80
2015,09,23,01,08,9.80
2015,09,23,01,09,9.70
2015,09,23,01,10,9.70
2015,09,23,01,11,9.70
2015,09,23,01,12,9.70
2015,09,23,01,13,9.70
2015,09,23,01,14,9.70
2015,09,23,01,15,9.70
2015,09,23,01,16,9.70
2015,09,23,01,17,9.70
2015,09,23,01,18,9.70
2015,09,23,01,19,9.70
2015,09,23,01,20,9.70
2015,09,23,01,21,9.70
2015,09,23,01,22,9.70
2015,09,23,01,23,9.70
2015,09,23,01,24,9.70
2015,09,23,01,25,9.70
2015,09,23,01,26,9.70
2015,09,23,01,27,9.60
2015,09,23,01,28,9.60
2015,09,23,01,29,9.60
2015,09,23,01,30,9.60
2015,09,23,01,31,9.60
2015,09,23,01,32,9.60
2015,09,23,01,33,9.60
2015,09,23,01,34,9.60
2015,09,23,01,35,9.60
2015,09,23,01,36,9.50
2015,09,23,01,37,9.50
2015,09,23,01,38,9.50
2015,09,23,01,39,9.50
2015,09,23,01,40,9.50
2015,09,23,01,41,9.50
2015,09,23,01,42,9.50
2015,09,23,01,43,9.50
2015,09,23,01,44,9.50
2015,09,23,01,45,9.50
2015,09,23,01,46,9.50
2015,09,23,01,47,9.50
2015,09,23,01,48,9.50
2015,09,23,01,49,9.50
2015,09,23,01,50,9.50
2015,09,23,01,51,9.50
2015,09,23,01,52,9.50
2015,09,23,01,53,9.50
2015,09,23,01,54,9.50
2015,09,23,01,55,9.50
2015,09,23,01,56,9.50
2015,09,23,01,57,9.50
2015,09,23,01,58,9.50
2015,09,23,01,59,9.50
2015,09,23,02,00,9.50
2015,09,23,02,01,9.50
2015,09,23,02,02,9.50
2015,09,23,02,03,9.50
2015,09,23,02,04,9.50
2015,09,23,02,05,9.50
2015,09,23,02,06,9.50
2015,09,23,02,07,9.50
2015,09,23,02,08,9.50
2015,09,23,02,09,9.50
2015,09,23,02,10,9.50
2015,09,23,02,11,9.50
2015,09,23,02,12,9.50
2015,09,23,02,13,9.50
2015,09,23,02,14,9.50
2015,09,23,02,15,9.50
2015,09,23,02,16,9.50
2015,09,23,02,17,9.50
2015,09,23,02,18,9.50
2015,09,23,02,19,9.50
2015,09,23,02,20,9.50
2015,09,23,02,21,9.50
2015,09,23,02,22,9.50
2015,09,23,02,23,9.50
2015,09,23,02,24,9.50
2015,09,23,02,25,9.50
2015,09,23,02,26,9.50
2015,09,23,02,27,9.50
2015,09,23,02,28,9.50
2015,09,23,02,29,9.50
2015,09,23,02,30,9.50
2015,09,23,02,31,9.50
2015,09,23,02,32,9.50
2015,09,23,02,33,9.50
2015,09,23,02,34,9.50
2015,09,23,02,35,9.50
2015,09,23,02,36,9.40
2015,09,23,02,37,9.40
2015,09,23,02,38,9.40
2015,09,23,02,39,9.40
2015,09,23,02,40,9.40
2015,09,23,02,41,9.40
2015,09,23,02,42,9.40
2015,09,23,02,43,9.30
2015,09,23,02,44,9.30
2015,09,23,02,45,9.30
2015,09,23,02,46,9.30
2015,09,23,02,47,9.30
2015,09,23,02,48,9.30
2015,09,23,02,49,9.30
2015,09,23,02,50,9.30
2015,09,23,02,51,9.30
2015,09,23,02,52,9.30
2015,09,23,02,53,9.20
2015,09,23,02,54,9.20
2015,09,23,02,55,9.20
2015,09,23,02,56,9.20
2015,09,23,02,57,9.20
2015,09,23,02,58,9.20
2015,09,23,02,59,9.20
2015,09,23,03,00,9.20
2015,09,23,03,01,9.20
2015,09,23,03,02,9.20
2015,09,23,03,03,9.30
2015,09,23,03,04,9.30
2015,09,23,03,05,9.20
2015,09,23,03,06,9.20
2015,09,23,03,07,9.20
2015,09,23,03,08,9.20
2015,09,23,03,09,9.20
2015,09,23,03,10,9.20
2015,09,23,03,11,9.20
2015,09,23,03,12,9.20
2015,09,23,03,13,9.10
2015,09,23,03,14,9.10
2015,09,23,03,15,9.10
2015,09,23,03,16,9.20
2015,09,23,03,17,9.20
2015,09,23,03,18,9.20
2015,09,23,03,19,9.20
2015,09,23,03,20,9.20
2015,09,23,03,21,9.20
2015,09,23,03,22,9.20
2015,09,23,03,23,9.20
2015,09,23,03,24,9.20
2015,09,23,03,25,9.20
2015,09,23,03,26,9.20
2015,09,23,03,27,9.10
2015,09,23,03,28,9.10
2015,09,23,03,29,9.10
2015,09,23,03,30,9.10
2015,09,23,03,31,9.10
2015,09,23,03,32,9.10
2015,09,23,03,33,9.10
2015,09,23,03,34,9.10
2015,09,23,03,35,9.20
2015,09,23,03,36,9.20
2015,09,23,03,37,9.20
2015,09,23,03,38,9.20
2015,09,23,03,39,9.20
2015,09,23,03,40,9.20
2015,09,23,03,41,9.20
2015,09,23,03,42,9.20
2015,09,23,03,43,9.20
2015,09,23,03,44,9.30
2015,09,23,03,45,9.30
2015,09,23,03,46,9.30
2015,09,23,03,47,9.30
2015,09,23,03,48,9.30
2015,09,23,03,49,9.30
2015,09,23,03,50,9.30
2015,09,23,03,51,9.30
2015,09,23,03,52,9.20
2015,09,23,03,53,9.20
2015,09,23,03,54,9.20
2015,09,23,03,55,9.20
2015,09,23,03,56,9.20
2015,09,23,03,57,9.20
2015,09,23,03,58,9.20
2015,09,23,03,59,9.20
2015,09,23,04,00,9.20
2015,09,23,04,01,9.30
2015,09,23,04,02,9.30
2015,09,23,04,03,9.40
2015,09,23,04,04,9.40
2015,09,23,04,05,9.50
2015,09,23,04,06,9.50
2015,09,23,04,07,9.50
2015,09,23,04,08,9.50
2015,09,23,04,09,9.50
2015,09,23,04,10,9.50
2015,09,23,04,11,9.40
2015,09,23,04,12,9.40
2015,09,23,04,13,9.40
2015,09,23,04,14,9.40
2015,09,23,04,15,9.40
2015,09,23,04,16,9.40
2015,09,23,04,17,9.30
2015,09,23,04,18,9.30
2015,09,23,04,19,9.30
2015,09,23,04,20,9.30
2015,09,23,04,21,9.30
2015,09,23,04,22,9.30
2015,09,23,04,23,9.30
2015,09,23,04,24,9.30
2015,09,23,04,25,9.30
2015,09,23,04,26,9.30
2015,09,23,04,27,9.40
2015,09,23,04,28,9.40
2015,09,23,04,29,9.40
2015,09,23,04,30,9.40
2015,09,23,04,31,9.40
2015,09,23,04,32,9.40
2015,09,23,04,33,9.40
2015,09,23,04,34,9.50
2015,09,23,04,35,9.50
2015,09,23,04,36,9.50
2015,09,23,04,37,9.60
2015,09,23,04,38,9.60
2015,09,23,04,39,9.60
2015,09,23,04,40,9.60
2015,09,23,04,41,9.60
2015,09,23,04,42,9.60
2015,09,23,04,43,9.60
2015,09,23,04,44,9.60
2015,09,23,04,45,9.60
2015,09,23,04,46,9.60
2015,09,23,04,47,9.60
2015,09,23,04,48,9.60
2015,09,23,04,49,9.70
2015,09,23,04,50,9.70
2015,09,23,04,51,9.70
2015,09,23,04,52,9.70
2015,09,23,04,53,9.70
2015,09,23,04,54,9.70
2015,09,23,04,55,9.70
2015,09,23,04,56,9.70
2015,09,23,04,57,9.70
2015,09,23,04,58,9.70
2015,09,23,04,59,9.70
2015,09,23,05,00,9.70
2015,09,23,05,01,9.70
2015,09,23,05,02,9.70
2015,09,23,05,03,9.70
2015,09,23,05,04,9.70
2015,09,23,05,05,9.70
2015,09,23,05,06,9.70
2015,09,23,05,07,9.80
2015,09,23,05,08,9.80
2015,09,23,05,09,9.80
2015,09,23,05,10,9.80
2015,09,23,05,11,9.80
2015,09,23,05,12,9.80
2015,09,23,05,13,9.80
2015,09,23,05,14,9.80
2015,09,23,05,15,9.90
2015,09,23,05,16,9.90
2015,09,23,05,17,9.80
2015,09,23,05,18,9.80
2015,09,23,05,19,9.80
2015,09,23,05,20,9.80
2015,09,23,05,21,9.80
2015,09,23,05,22,9.70
2015,09,23,05,23,9.70
2015,09,23,05,24,9.70
2015,09,23,05,25,9.70
2015,09,23,05,26,9.70
2015,09,23,05,27,9.60
2015,09,23,05,28,9.60
2015,09,23,05,29,9.60
2015,09,23,05,30,9.60
2015,09,23,05,31,9.50
2015,09,23,05,32,9.50
2015,09,23,05,33,9.50
2015,09,23,05,34,9.50
2015,09,23,05,35,9.50
2015,09,23,05,36,9.50
2015,09,23,05,37,9.50
2015,09,23,05,38,9.50
2015,09,23,05,39,9.50
2015,09,23,05,40,9.40
2015,09,23,05,41,9.40
2015,09,23,05,42,9.40
2015,09,23,05,43,9.40
2015,09,23,05,44,9.40
2015,09,23,05,45,9.40
2015,09,23,05,46,9.40
2015,09,23,05,47,9.40
2015,09,23,05,48,9.40
2015,09,23,05,49,9.40
2015,09,23,05,50,9.40
2015,09,23,05,51,9.40
2015,09,23,05,52,9.40
2015,09,23,05,53,9.30
2015,09,23,05,54,9.30
2015,09,23,05,55,9.30
2015,09,23,05,56,9.30
2015,09,23,05,57,9.30
2015,09,23,05,58,9.30
2015,09,23,05,59,9.40
2015,09,23,06,00,9.40
2015,09,23,06,01,9.40
2015,09,23,06,02,9.40
2015,09,23,06,03,9.50
2015,09,23,06,04,9.50
2015,09,23,06,05,9.50
2015,09,23,06,06,9.50
2015,09,23,06,07,9.50
2015,09,23,06,08,9.50
2015,09,23,06,09,9.50
2015,09,23,06,10,9.50
2015,09,23,06,11,9.50
2015,09,23,06,12,9.60
2015,09,23,06,13,9.60
2015,09,23,06,14,9.60
2015,09,23,06,15,9.60
2015,09,23,06,16,9.60
2015,09,23,06,17,9.60
2015,09,23,06,18,9.50
2015,09,23,06,19,9.50
2015,09,23,06,20,9.50
2015,09,23,06,21,9.50
2015,09,23,06,22,9.50
2015,09,23,06,23,9.50
2015,09,23,06,24,9.50
2015,09,23,06,25,9.50
2015,09,23,06,26,9.50
2015,09,23,06,27,9.50
2015,09,23,06,28,9.50
2015,09,23,06,29,9.50
2015,09,23,06,30,9.50
2015,09,23,06,31,9.40
2015,09,23,06,32,9.40
2015,09,23,06,33,9.40
2015,09,23,06,34,9.30
2015,09,23,06,35,9.30
2015,09,23,06,36,9.30
2015,09,23,06,37,9.30
2015,09,23,06,38,9.30
2015,09,23,06,39,9.40
2015,09,23,06,40,9.40
2015,09,23,06,41,9.40
2015,09,23,06,42,9.40
2015,09,23,06,43,9.40
2015,09,23,06,44,9.40
2015,09,23,06,45,9.40
2015,09,23,06,46,9.40
2015,09,23,06,47,9.40
2015,09,23,06,48,9.30
2015,09,23,06,49,9.20
2015,09,23,06,50,9.20
2015,09,23,06,51,9.10
2015,09,23,06,52,9.10
2015,09,23,06,53,9.10
2015,09,23,06,54,9.10
2015,09,23,06,55,9.00
2015,09,23,06,56,9.00
2015,09,23,06,57,9.00
2015,09,23,06,58,9.00
2015,09,23,06,59,9.00
2015,09,23,07,00,9.00
2015,09,23,07,01,9.00
2015,09,23,07,02,9.00
2015,09,23,07,03,9.00
2015,09,23,07,04,9.00
2015,09,23,07,05,8.90
2015,09,23,07,06,8.90
2015,09,23,07,07,8.90
2015,09,23,07,08,8.90
2015,09,23,07,09,8.90
2015,09,23,07,10,8.80
2015,09,23,07,11,8.80
2015,09,23,07,12,8.80
2015,09,23,07,13,8.80
2015,09,23,07,14,8.80
2015,09,23,07,15,8.70
2015,09,23,07,16,8.70
2015,09,23,07,17,8.70
2015,09,23,07,18,8.70
2015,09,23,07,19,8.70
2015,09,23,07,20,8.70
2015,09,23,07,21,8.70
2015,09,23,07,22,8.70
2015,09,23,07,23,8.70
2015,09,23,07,24,8.70
2015,09,23,07,25,8.70
2015,09,23,07,26,8.80
2015,09,23,07,27,8.80
2015,09,23,07,28,8.80
2015,09,23,07,29,8.90
2015,09,23,07,30,8.90
2015,09,23,07,31,8.90
2015,09,23,07,32,8.90
2015,09,23,07,33,8.90
2015,09,23,07,34,8.80
2015,09,23,07,35,8.80
2015,09,23,07,36,8.80
2015,09,23,07,37,8.80
2015,09,23,07,38,8.80
2015,09,23,07,39,8.80
2015,09,23,07,40,8.80
2015,09,23,07,41,8.90
2015,09,23,07,42,8.90
2015,09,23,07,43,8.90
2015,09,23,07,44,8.90
2015,09,23,07,45,9.00
2015,09,23,07,46,9.00
2015,09,23,07,47,9.00
2015,09,23,07,48,9.10
2015,09,23,07,49,9.10
2015,09,23,07,50,9.10
2015,09,23,07,51,9.20
2015,09,23,07,52,9.20
2015,09,23,07,53,9.20
2015,09,23,07,54,9.20
2015,09,23,07,55,9.20
2015,09,23,07,56,9.20
2015,09,23,07,57,9.30
2015,09,23,07,58,9.40
2015,09,23,07,59,9.50
2015,09,23,08,00,9.60
2015,09,23,08,01,9.80
2015,09,23,08,02,9.90
2015,09,23,08,03,10.00
2015,09,23,08,04,10.10
2015,09,23,08,05,10.20
2015,09,23,08,06,10.30
2015,09,23,08,07,10.40
2015,09,23,08,08,10.40
2015,09,23,08,09,10.50
2015,09,23,08,10,10.60
2015,09,23,08,11,10.70
2015,09,23,08,12,10.80
2015,09,23,08,13,10.90
2015,09,23,08,14,11.00
2015,09,23,08,15,11.10
2015,09,23,08,16,11.10
2015,09,23,08,17,11.20
2015,09,23,08,18,11.30
2015,09,23,08,19,11.30
2015,09,23,08,20,11.40
2015,09,23,08,21,11.40
2015,09,23,08,22,11.40
2015,09,23,08,23,11.50
2015,09,23,08,24,11.60
2015,09,23,08,25,11.60
2015,09,23,08,26,11.60
2015,09,23,08,27,11.60
2015,09,23,08,28,11.60
2015,09,23,08,29,11.60
2015,09,23,08,30,11.60
2015,09,23,08,31,11.60
2015,09,23,08,32,11.60
2015,09,23,08,33,11.60
2015,09,23,08,34,11.60
2015,09,23,08,35,11.60
2015,09,23,08,36,11.60
2015,09,23,08,37,11.60
2015,09,23,08,38,11.60
2015,09,23,08,39,11.70
2015,09,23,08,40,11.70
2015,09,23,08,41,11.70
2015,09,23,08,42,11.70
2015,09,23,08,43,11.70
2015,09,23,08,44,11.80
2015,09,23,08,45,11.80
2015,09,23,08,46,11.80
2015,09,23,08,47,11.80
2015,09,23,08,48,11.80
2015,09,23,08,49,11.80
2015,09,23,08,50,11.80
2015,09,23,08,51,11.80
2015,09,23,08,52,11.80
2015,09,23,08,53,11.80
2015,09,23,08,54,11.80
2015,09,23,08,55,11.80
2015,09,23,08,56,11.80
2015,09,23,08,57,11.80
2015,09,23,08,58,11.80
2015,09,23,08,59,11.80
2015,09,23,09,00,11.80
2015,09,23,09,01,11.80
2015,09,23,09,02,11.80
2015,09,23,09,03,11.80
2015,09,23,09,04,11.80
2015,09,23,09,05,11.80
2015,09,23,09,06,11.80
2015,09,23,09,07,11.80
2015,09,23,09,08,11.80
2015,09,23,09,09,11.80
2015,09,23,09,10,11.80
2015,09,23,09,11,11.80
2015,09,23,09,12,11.80
2015,09,23,09,13,11.80
2015,09,23,09,14,11.80
2015,09,23,09,15,11.80
2015,09,23,09,16,11.80
2015,09,23,09,17,11.80
2015,09,23,09,18,11.80
2015,09,23,09,19,11.80
2015,09,23,09,20,11.80
2015,09,23,09,21,11.80
2015,09,23,09,22,11.90
2015,09,23,09,23,11.90
2015,09,23,09,24,12.00
2015,09,23,09,25,12.00
2015,09,23,09,26,12.00
2015,09,23,09,27,12.00
2015,09,23,09,28,12.00
2015,09,23,09,29,12.00
2015,09,23,09,30,12.00
2015,09,23,09,31,12.00
2015,09,23,09,32,12.10
2015,09,23,09,33,12.10
2015,09,23,09,34,12.10
2015,09,23,09,35,12.20
2015,09,23,09,36,12.20
2015,09,23,09,37,12.20
2015,09,23,09,38,12.20
2015,09,23,09,39,12.20
2015,09,23,09,40,12.20
2015,09,23,09,41,12.10
2015,09,23,09,42,12.20
2015,09,23,09,43,12.20
2015,09,23,09,44,12.30
2015,09,23,09,45,12.30
2015,09,23,09,46,12.40
2015,09,23,09,47,12.40
2015,09,23,09,48,12.40
2015,09,23,09,49,12.40
2015,09,23,09,50,12.40
2015,09,23,09,51,12.50
2015,09,23,09,52,12.50
2015,09,23,09,53,12.50
2015,09,23,09,54,12.50
2015,09,23,09,55,12.50
2015,09,23,09,56,12.50
2015,09,23,09,57,12.50
2015,09,23,09,58,12.60
2015,09,23,09,59,12.60
2015,09,23,10,00,12.60
2015,09,23,10,01,12.60
2015,09,23,10,02,12.60
2015,09,23,10,03,12.60
2015,09,23,10,04,12.60
2015,09,23,10,05,12.60
2015,09,23,10,06,12.60
2015,09,23,10,07,12.60
2015,09,23,10,08,12.70
2015,09,23,10,09,12.70
2015,09,23,10,10,12.60
2015,09,23,10,11,12.60
2015,09,23,10,12,12.60
2015,09,23,10,13,12.70
2015,09,23,10,14,12.70
2015,09,23,10,15,12.70
2015,09,23,10,16,12.70
2015,09,23,10,17,12.70
2015,09,23,10,18,12.70
2015,09,23,10,19,12.70
2015,09,23,10,20,12.70
2015,09,23,10,21,12.70
2015,09,23,10,22,12.70
2015,09,23,10,23,12.70
2015,09,23,10,24,12.60
2015,09,23,10,25,12.60
2015,09,23,10,26,12.60
2015,09,23,10,27,12.60
2015,09,23,10,28,12.60
2015,09,23,10,29,12.60
2015,09,23,10,30,12.70
2015,09,23,10,31,12.70
2015,09,23,10,32,12.70
2015,09,23,10,33,12.70
2015,09,23,10,34,12.70
2015,09,23,10,35,12.80
2015,09,23,10,36,12.80
2015,09,23,10,37,12.80
2015,09,23,10,38,12.80
2015,09,23,10,39,12.80
2015,09,23,10,40,12.90
2015,09,23,10,41,12.90
2015,09,23,10,42,12.90
2015,09,23,10,43,13.00
2015,09,23,10,44,13.00
2015,09,23,10,45,13.00
2015,09,23,10,46,13.00
2015,09,23,10,47,13.00
2015,09,23,10,48,13.00
2015,09,23,10,49,13.00
2015,09,23,10,50,13.00
2015,09,23,10,51,13.00
2015,09,23,10,52,13.00
2015,09,23,10,53,13.00
2015,09,23,10,54,13.00
2015,09,23,10,55,13.00
2015,09,23,10,56,13.00
2015,09,23,10,57,13.00
2015,09,23,10,58,13.00
2015,09,23,10,59,13.00
2015,09,23,11,00,13.00
2015,09,23,11,01,13.00
2015,09,23,11,02,13.00
2015,09,23,11,03,13.00
2015,09,23,11,04,13.00
2015,09,23,11,05,13.00
2015,09,23,11,06,12.90
2015,09,23,11,07,12.90
2015,09,23,11,08,12.80
2015,09,23,11,09,12.90
2015,09,23,11,10,12.90
2015,09,23,11,11,12.90
2015,09,23,11,12,12.90
2015,09,23,11,13,13.00
2015,09,23,11,14,13.10
2015,09,23,11,15,13.10
2015,09,23,11,16,13.10
2015,09,23,11,17,13.10
2015,09,23,11,18,13.10
2015,09,23,11,19,13.10
2015,09,23,11,20,13.10
2015,09,23,11,21,13.10
2015,09,23,11,22,13.20
2015,09,23,11,23,13.20
2015,09,23,11,24,13.20
2015,09,23,11,25,13.30
2015,09,23,11,26,13.30
2015,09,23,11,27,13.30
2015,09,23,11,28,13.40
2015,09,23,11,29,13.50
2015,09,23,11,30,13.50
2015,09,23,11,31,13.50
2015,09,23,11,32,13.50
2015,09,23,11,33,13.60
2015,09,23,11,34,13.60
2015,09,23,11,35,13.60
2015,09,23,11,36,13.70
2015,09,23,11,37,13.70
2015,09,23,11,38,13.70
2015,09,23,11,39,13.70
2015,09,23,11,40,13.70
2015,09,23,11,41,13.70
2015,09,23,11,42,13.70
2015,09,23,11,43,13.70
2015,09,23,11,44,13.70
2015,09,23,11,45,13.70
2015,09,23,11,46,13.70
2015,09,23,11,47,13.70
2015,09,23,11,48,13.70
2015,09,23,11,49,13.70
2015,09,23,11,50,13.70
2015,09,23,11,51,13.70
2015,09,23,11,52,13.70
2015,09,23,11,53,13.70
2015,09,23,11,54,13.60
2015,09,23,11,55,13.60
2015,09,23,11,56,13.60
2015,09,23,11,57,13.70
2015,09,23,11,58,13.70
2015,09,23,11,59,13.70
2015,09,23,12,00,13.80
2015,09,23,12,01,13.80
2015,09,23,12,02,13.80
2015,09,23,12,03,13.80
2015,09,23,12,04,13.80
2015,09,23,12,05,13.80
2015,09,23,12,06,13.70
2015,09,23,12,07,13.70
2015,09,23,12,08,13.80
2015,09,23,12,09,13.80
2015,09,23,12,10,13.70
2015,09,23,12,11,13.70
2015,09,23,12,12,13.80
2015,09,23,12,13,13.80
2015,09,23,12,14,13.90
2015,09,23,12,15,13.90
2015,09,23,12,16,14.00
2015,09,23,12,17,14.10
2015,09,23,12,18,14.20
2015,09,23,12,19,14.30
2015,09,23,12,20,14.40
2015,09,23,12,21,14.50
2015,09,23,12,22,14.50
2015,09,23,12,23,14.60
2015,09,23,12,24,14.60
2015,09,23,12,25,14.60
2015,09,23,12,26,14.60
2015,09,23,12,27,14.60
2015,09,23,12,28,14.70
2015,09,23,12,29,14.70
2015,09,23,12,30,14.70
2015,09,23,12,31,14.70
2015,09,23,12,32,14.70
2015,09,23,12,33,14.80
2015,09,23,12,34,14.80
2015,09,23,12,35,14.70
2015,09,23,12,36,14.70
2015,09,23,12,37,14.80
2015,09,23,12,38,14.80
2015,09,23,12,39,14.80
2015,09,23,12,40,14.80
2015,09,23,12,41,14.80
2015,09,23,12,42,14.80
2015,09,23,12,43,14.80
2015,09,23,12,44,14.70
2015,09,23,12,45,14.70
2015,09,23,12,46,14.70
2015,09,23,12,47,14.70
2015,09,23,12,48,14.70
2015,09,23,12,49,14.60
2015,09,23,12,50,14.70
2015,09,23,12,51,14.70
2015,09,23,12,52,14.70
2015,09,23,12,53,14.70
2015,09,23,12,54,14.70
2015,09,23,12,55,14.80
2015,09,23,12,56,14.80
2015,09,23,12,57,14.80
2015,09,23,12,58,14.80
2015,09,23,12,59,14.80
2015,09,23,13,00,14.80
2015,09,23,13,01,14.70
2015,09,23,13,02,14.70
2015,09,23,13,03,14.80
2015,09,23,13,04,14.80
2015,09,23,13,05,14.80
2015,09,23,13,06,14.80
2015,09,23,13,07,14.70
2015,09,23,13,08,14.80
2015,09,23,13,09,14.80
2015,09,23,13,10,14.90
2015,09,23,13,11,15.00
2015,09,23,13,12,15.10
2015,09,23,13,13,15.20
2015,09,23,13,14,15.20
2015,09,23,13,15,15.30
2015,09,23,13,16,15.40
2015,09,23,13,17,15.40
2015,09,23,13,18,15.50
2015,09,23,13,19,15.60
2015,09,23,13,20,15.60
2015,09,23,13,21,15.70
2015,09,23,13,22,15.80
2015,09,23,13,23,15.80
2015,09,23,13,24,15.90
2015,09,23,13,25,15.90
2015,09,23,13,26,16.10
2015,09,23,13,27,16.10
2015,09,23,13,28,16.10
2015,09,23,13,29,16.10
2015,09,23,13,30,16.10
2015,09,23,13,31,16.10
2015,09,23,13,32,16.10
2015,09,23,13,33,16.10
2015,09,23,13,34,16.10
2015,09,23,13,35,16.10
2015,09,23,13,36,16.10
2015,09,23,13,37,16.20
2015,09,23,13,38,16.20
2015,09,23,13,39,16.20
2015,09,23,13,40,16.20
2015,09,23,13,41,16.20
2015,09,23,13,42,16.30
2015,09,23,13,43,16.40
2015,09,23,13,44,16.40
2015,09,23,13,45,16.40
2015,09,23,13,46,16.40
2015,09,23,13,47,16.40
2015,09,23,13,48,16.40
2015,09,23,13,49,16.40
2015,09,23,13,50,16.40
2015,09,23,13,51,16.60
2015,09,23,13,52,16.60
2015,09,23,13,53,16.60
2015,09,23,13,54,16.70
2015,09,23,13,55,16.70
2015,09,23,13,56,16.60
2015,09,23,13,57,16.50
2015,09,23,13,58,16.40
2015,09,23,13,59,16.40
2015,09,23,14,00,16.50
2015,09,23,14,01,16.60
2015,09,23,14,02,16.70
2015,09,23,14,03,16.70
2015,09,23,14,04,16.70
2015,09,23,14,05,16.80
2015,09,23,14,06,16.80
2015,09,23,14,07,16.90
2015,09,23,14,08,17.00
2015,09,23,14,09,17.00
2015,09,23,14,10,17.10
2015,09,23,14,11,17.10
2015,09,23,14,12,17.00
2015,09,23,14,13,16.90
2015,09,23,14,14,16.90
2015,09,23,14,15,16.90
2015,09,23,14,16,16.80
2015,09,23,14,17,16.80
2015,09,23,14,18,16.80
2015,09,23,14,19,16.80
2015,09,23,14,20,16.70
2015,09,23,14,21,16.70
2015,09,23,14,22,16.60
2015,09,23,14,23,16.60
2015,09,23,14,24,16.60
2015,09,23,14,25,16.70
2015,09,23,14,26,16.70
2015,09,23,14,27,16.70
2015,09,23,14,28,16.70
2015,09,23,14,29,16.70
2015,09,23,14,30,16.70
2015,09,23,14,31,16.60
2015,09,23,14,32,16.60
2015,09,23,14,33,16.60
2015,09,23,14,34,16.70
2015,09,23,14,35,16.70
2015,09,23,14,36,16.70
2015,09,23,14,37,16.70
2015,09,23,14,38,16.70
2015,09,23,14,39,16.80
2015,09,23,14,40,16.80
2015,09,23,14,41,16.80
2015,09,23,14,42,16.90
2015,09,23,14,43,16.90
2015,09,23,14,44,17.00
2015,09,23,14,45,17.00
2015,09,23,14,46,17.00
2015,09,23,14,47,17.00
2015,09,23,14,48,17.00
2015,09,23,14,49,17.00
2015,09,23,14,50,17.00
2015,09,23,14,51,17.10
2015,09,23,14,52,17.20
2015,09,23,14,53,17.20
2015,09,23,14,54,17.30
2015,09,23,14,55,17.30
2015,09,23,14,56,17.30
2015,09,23,14,57,17.40
2015,09,23,14,58,17.50
2015,09,23,14,59,17.60
2015,09,23,15,00,17.60
2015,09,23,15,01,17.70
2015,09,23,15,02,17.70
2015,09,23,15,03,17.60
2015,09,23,15,04,17.50
2015,09,23,15,05,17.50
2015,09,23,15,06,17.50
2015,09,23,15,07,17.50
2015,09,23,15,08,17.50
2015,09,23,15,09,17.40
2015,09,23,15,10,17.40
2015,09,23,15,11,17.40
2015,09,23,15,12,17.30
2015,09,23,15,13,17.30
2015,09,23,15,14,17.20
2015,09,23,15,15,17.10
2015,09,23,15,16,17.10
2015,09,23,15,17,17.00
2015,09,23,15,18,17.10
2015,09,23,15,19,17.10
2015,09,23,15,20,17.20
2015,09,23,15,21,17.20
2015,09,23,15,22,17.20
2015,09,23,15,23,17.20
2015,09,23,15,24,17.20
2015,09,23,15,25,17.20
2015,09,23,15,26,17.20
2015,09,23,15,27,17.30
2015,09,23,15,28,17.30
2015,09,23,15,29,17.30
2015,09,23,15,30,17.30
2015,09,23,15,31,17.40
2015,09,23,15,32,17.40
2015,09,23,15,33,17.40
2015,09,23,15,34,17.50
2015,09,23,15,35,17.60
2015,09,23,15,36,17.70
2015,09,23,15,37,17.80
2015,09,23,15,38,17.80
2015,09,23,15,39,17.90
2015,09,23,15,40,17.90
2015,09,23,15,41,17.90
2015,09,23,15,42,17.90
2015,09,23,15,43,17.90
2015,09,23,15,44,17.90
2015,09,23,15,45,17.90
2015,09,23,15,46,17.90
2015,09,23,15,47,17.90
2015,09,23,15,48,17.90
2015,09,23,15,49,17.90
2015,09,23,15,50,17.80
2015,09,23,15,51,17.80
2015,09,23,15,52,17.80
2015,09,23,15,53,17.80
2015,09,23,15,54,17.80
2015,09,23,15,55,17.70
2015,09,23,15,56,17.70
2015,09,23,15,57,17.60
2015,09,23,15,58,17.60
2015,09,23,15,59,17.60
2015,09,23,16,00,17.60
2015,09,23,16,01,17.50
2015,09,23,16,02,17.50
2015,09,23,16,03,17.60
2015,09,23,16,04,17.60
2015,09,23,16,05,17.60
2015,09,23,16,06,17.60
2015,09,23,16,07,17.50
2015,09,23,16,08,17.50
2015,09,23,16,09,17.50
2015,09,23,16,10,17.50
2015,09,23,16,11,17.60
2015,09,23,16,12,17.60
2015,09,23,16,13,17.60
2015,09,23,16,14,17.60
2015,09,23,16,15,17.60
2015,09,23,16,16,17.60
2015,09,23,16,17,17.70
2015,09,23,16,18,17.70
2015,09,23,16,19,17.60
2015,09,23,16,20,17.60
2015,09,23,16,21,17.60
2015,09,23,16,22,17.50
2015,09,23,16,23,17.50
2015,09,23,16,24,17.50
2015,09,23,16,25,17.40
2015,09,23,16,26,17.40
2015,09,23,16,27,17.40
2015,09,23,16,28,17.40
2015,09,23,16,29,17.30
2015,09,23,16,30,17.30
2015,09,23,16,31,17.30
2015,09,23,16,32,17.30
2015,09,23,16,33,17.30
2015,09,23,16,34,17.40
2015,09,23,16,35,17.40
2015,09,23,16,36,17.50
2015,09,23,16,37,17.50
2015,09,23,16,38,17.50
2015,09,23,16,39,17.50
2015,09,23,16,40,17.60
2015,09,23,16,41,17.60
2015,09,23,16,42,17.70
2015,09,23,16,43,17.80
2015,09,23,16,44,17.90
2015,09,23,16,45,17.90
2015,09,23,16,46,18.00
2015,09,23,16,47,18.10
2015,09,23,16,48,18.10
2015,09,23,16,49,18.20
2015,09,23,16,50,18.20
2015,09,23,16,51,18.20
2015,09,23,16,52,18.20
2015,09,23,16,53,18.40
2015,09,23,16,54,18.40
2015,09,23,16,55,18.50
2015,09,23,16,56,18.60
2015,09,23,16,57,18.60
2015,09,23,16,58,18.50
2015,09,23,16,59,18.50
2015,09,23,17,00,18.40
2015,09,23,17,01,18.40
2015,09,23,17,02,18.40
2015,09,23,17,03,18.40
2015,09,23,17,04,18.30
2015,09,23,17,05,18.30
2015,09,23,17,06,18.30
2015,09,23,17,07,18.30
2015,09,23,17,08,18.20
2015,09,23,17,09,18.20
2015,09,23,17,10,18.20
2015,09,23,17,11,18.20
2015,09,23,17,12,18.20
2015,09,23,17,13,18.20
2015,09,23,17,14,18.20
2015,09,23,17,15,18.20
2015,09,23,17,16,18.20
2015,09,23,17,17,18.10
2015,09,23,17,18,18.10
2015,09,23,17,19,18.10
2015,09,23,17,20,18.00
2015,09,23,17,21,17.90
2015,09,23,17,22,17.90
2015,09,23,17,23,17.90
2015,09,23,17,24,17.90
2015,09,23,17,25,17.90
2015,09,23,17,26,17.90
2015,09,23,17,27,17.90
2015,09,23,17,28,17.90
2015,09,23,17,29,17.90
2015,09,23,17,30,17.80
2015,09,23,17,31,17.80
2015,09,23,17,32,17.70
2015,09,23,17,33,17.70
2015,09,23,17,34,17.60
2015,09,23,17,35,17.50
2015,09,23,17,36,17.50
2015,09,23,17,37,17.40
2015,09,23,17,38,17.40